| time (UTC) | temp C | wind direction | speed KPH | gust KPH | rain 1hr cm | rain 24hr cm | rain mn cm | humidity % | barometer mb |
| 20260510204516 | 20 | 307 | 6.4 | 20.9 | 0.00 | 0.64 | 0.00 | 66 | 1012.1 |
| 20260510203010 | 20 | 288 | 4.8 | 22.5 | 0.00 | 0.66 | 0.00 | 68 | 1012.3 |
| 20260510201513 | 20 | 242 | 6.4 | 24.1 | 0.00 | 0.66 | 0.00 | 68 | 1012.3 |
| 20260510200014 | 20 | 306 | 6.4 | 19.3 | 0.00 | 0.69 | 0.00 | 66 | 1012.2 |
| 20260510194516 | 20 | 316 | 3.2 | 17.7 | 0.00 | 0.71 | 0.00 | 69 | 1012.4 |
| 20260510193011 | 20 | 259 | 1.6 | 16.1 | 0.00 | 0.76 | 0.00 | 69 | 1012.5 |
| 20260510191516 | 19 | 228 | 3.2 | 11.3 | 0.00 | 0.86 | 0.00 | 72 | 1012.7 |
| 20260510190014 | 18 | 255 | 4.8 | 12.9 | 0.00 | 0.91 | 0.00 | 70 | 1012.8 |
| 20260510184517 | 18 | 235 | 6.4 | 17.7 | 0.00 | 0.99 | 0.00 | 69 | 1012.9 |
| 20260510183030 | 18 | 268 | 3.2 | 12.9 | 0.00 | 1.07 | 0.00 | 71 | 1012.8 |
| 20260510181515 | 18 | 219 | 8.0 | 14.5 | 0.00 | 1.07 | 0.00 | 69 | 1012.8 |
| 20260510180013 | 19 | 197 | 3.2 | 14.5 | 0.00 | 1.07 | 0.00 | 71 | 1012.8 |
| 20260510174513 | 19 | 257 | 6.4 | 24.1 | 0.00 | 1.07 | 0.00 | 68 | 1012.9 |
| 20260510173016 | 19 | 238 | 3.2 | 14.5 | 0.00 | 1.07 | 0.00 | 72 | 1013.0 |
| 20260510171518 | 18 | 179 | 1.6 | 8.0 | 0.00 | 1.07 | 0.00 | 74 | 1012.8 |
| 20260510170016 | 18 | 191 | 1.6 | 12.9 | 0.00 | 1.07 | 0.00 | 72 | 1012.8 |
| 20260510164529 | 18 | 194 | 4.8 | 11.3 | 0.00 | 1.07 | 0.00 | 75 | 1012.7 |
| 20260510163020 | 18 | 226 | 4.8 | 16.1 | 0.00 | 1.07 | 0.00 | 76 | 1013.1 |
| 20260510161516 | 17 | 238 | 3.2 | 14.5 | 0.00 | 1.07 | 0.00 | 77 | 1013.0 |
| 20260510160025 | 17 | 293 | 3.2 | 11.3 | 0.00 | 1.07 | 0.00 | 83 | 1013.0 |
| 20260510154518 | 17 | 196 | 0.0 | 6.4 | 0.00 | 1.07 | 0.00 | 82 | 1012.9 |
| 20260510153023 | 16 | 191 | 1.6 | 12.9 | 0.00 | 1.07 | 0.00 | 84 | 1013.1 |
| 20260510151517 | 16 | 196 | 1.6 | 6.4 | 0.00 | 1.07 | 0.00 | 85 | 1013.3 |
| 20260510150019 | 15 | 210 | 1.6 | 8.0 | 0.00 | 1.07 | 0.00 | 85 | 1013.3 |
| 20260510144523 | 15 | 202 | 0.0 | 6.4 | 0.00 | 1.07 | 0.00 | 90 | 1013.2 |
| 20260510143016 | 14 | 220 | 3.2 | 9.7 | 0.00 | 1.07 | 0.00 | 88 | 1013.0 |
| 20260510141518 | 13 | 236 | 0.0 | 3.2 | 0.00 | 1.07 | 0.00 | 93 | 1012.9 |
| 20260510140021 | 13 | 226 | 0.0 | 3.2 | 0.00 | 1.07 | 0.00 | 93 | 1013.1 |
| 20260510134520 | 12 | 21 | 0.0 | 3.2 | 0.00 | 1.07 | 0.00 | 95 | 1012.9 |
| 20260510133019 | 12 | 271 | 0.0 | 0.0 | 0.00 | 1.07 | 0.00 | 95 | 1012.9 |
| 20260510131520 | 11 | 271 | 0.0 | 3.2 | 0.00 | 1.07 | 0.00 | 95 | 1012.7 |
| 20260510130027 | 11 | 193 | 0.0 | 0.0 | 0.00 | 1.07 | 0.00 | 95 | 1012.6 |
| 20260510124518 | 11 | 193 | 0.0 | 0.0 | 0.00 | 1.07 | 0.00 | 95 | 1012.7 |
| 20260510123015 | 11 | 193 | 0.0 | 3.2 | 0.00 | 1.07 | 0.00 | 95 | 1012.4 |
| 20260510121509 | 11 | 147 | 0.0 | 0.0 | 0.00 | 1.07 | 0.00 | 95 | 1012.4 |
| 20260510120008 | 11 | 147 | 0.0 | 1.6 | 0.00 | 1.07 | 0.00 | 96 | 1012.2 |
| 20260510114512 | 11 | 149 | 0.0 | 0.0 | 0.00 | 1.07 | 0.00 | 96 | 1012.1 |
| 20260510113029 | 10 | 149 | 0.0 | 0.0 | 0.00 | 1.07 | 0.00 | 95 | 1012.1 |
| 20260510111531 | 10 | 149 | 0.0 | 0.0 | 0.00 | 1.07 | 0.00 | 95 | 1011.7 |
| 20260510110016 | 10 | 323 | 0.0 | 1.6 | 0.00 | 1.07 | 0.00 | 95 | 1011.7 |
| 20260510104518 | 10 | 253 | 0.0 | 0.0 | 0.00 | 1.07 | 0.00 | 95 | 1011.8 |
| 20260510103010 | 10 | 151 | 0.0 | 3.2 | 0.00 | 1.07 | 0.00 | 95 | 1011.4 |
| 20260510101508 | 10 | 223 | 0.0 | 3.2 | 0.00 | 1.07 | 0.00 | 95 | 1011.3 |
| 20260510100007 | 10 | 195 | 0.0 | 0.0 | 0.00 | 1.07 | 0.00 | 95 | 1011.5 |
| 20260510094523 | 10 | 220 | 0.0 | 0.0 | 0.00 | 1.07 | 0.00 | 95 | 1011.5 |
| 20260510093022 | 10 | 169 | 0.0 | 1.6 | 0.00 | 1.07 | 0.00 | 95 | 1011.5 |
| 20260510091541 | 10 | 249 | 0.0 | 0.0 | 0.00 | 1.09 | 0.00 | 95 | 1011.7 |
| 20260510090015 | 10 | 249 | 0.0 | 1.6 | 0.00 | 1.09 | 0.00 | 95 | 1011.8 |
| 20260510084512 | 10 | 248 | 0.0 | 0.0 | 0.00 | 1.09 | 0.00 | 95 | 1011.8 |
| 20260510083008 | 10 | 249 | 0.0 | 1.6 | 0.00 | 1.09 | 0.00 | 95 | 1012.0 |
| 20260510081533 | 10 | 289 | 0.0 | 6.4 | 0.00 | 1.09 | 0.00 | 95 | 1011.9 |
| 20260510080024 | 10 | 297 | 1.6 | 4.8 | 0.00 | 1.09 | 0.00 | 95 | 1011.7 |
| 20260510074522 | 10 | 313 | 3.2 | 4.8 | 0.00 | 1.12 | 0.00 | 95 | 1011.7 |
| 20260510073032 | 10 | 203 | 0.0 | 3.2 | 0.00 | 1.14 | 0.00 | 95 | 1011.3 |
| 20260510071517 | 10 | 250 | 0.0 | 0.0 | 0.00 | 1.14 | 0.00 | 95 | 1011.3 |
| 20260510070021 | 10 | 295 | 0.0 | 1.6 | 0.00 | 1.14 | 0.00 | 95 | 1011.4 |
| 20260510064547 | 10 | 214 | 0.0 | 3.2 | 0.00 | 1.14 | 0.00 | 95 | 1011.5 |
| 20260510063033 | 10 | 243 | 0.0 | 3.2 | 0.00 | 1.14 | 0.00 | 95 | 1011.6 |
| 20260510061535 | 10 | 243 | 0.0 | 0.0 | 0.00 | 1.14 | 0.00 | 95 | 1011.5 |
| 20260510060031 | 10 | 243 | 0.0 | 0.0 | 0.00 | 1.14 | 0.00 | 95 | 1011.1 |
| 20260510054520 | 10 | 243 | 0.0 | 0.0 | 0.00 | 1.14 | 0.00 | 95 | 1011.0 |
| 20260510053016 | 10 | 243 | 0.0 | 0.0 | 0.00 | 1.14 | 0.00 | 95 | 1011.2 |
| 20260510051512 | 10 | 243 | 0.0 | 3.2 | 0.00 | 1.14 | 0.00 | 94 | 1011.4 |
| 20260510050012 | 10 | 254 | 0.0 | 3.2 | 0.00 | 1.14 | 0.00 | 94 | 1011.5 |
| 20260510044509 | 10 | 284 | 0.0 | 4.8 | 0.00 | 1.14 | 0.00 | 94 | 1011.3 |
| 20260510043024 | 10 | 293 | 0.0 | 4.8 | 0.00 | 1.14 | 0.00 | 94 | 1011.3 |
| 20260510041524 | 10 | 276 | 0.0 | 1.6 | 0.00 | 1.14 | 0.00 | 95 | 1011.0 |
| 20260510040022 | 11 | 232 | 0.0 | 0.0 | 0.00 | 1.14 | 0.00 | 94 | 1011.1 |
| 20260510034516 | 11 | 232 | 0.0 | 0.0 | 0.00 | 1.14 | 1.14 | 94 | 1010.8 |
| 20260510033014 | 11 | 232 | 0.0 | 0.0 | 0.00 | 1.14 | 1.14 | 94 | 1011.0 |
| 20260510031510 | 11 | 232 | 0.0 | 1.6 | 0.00 | 1.14 | 1.14 | 94 | 1011.1 |
| 20260510030007 | 11 | 232 | 0.0 | 0.0 | 0.00 | 1.14 | 1.14 | 94 | 1011.2 |
| 20260510024532 | 11 | 232 | 0.0 | 0.0 | 0.00 | 1.14 | 1.14 | 94 | 1011.2 |
| 20260510023024 | 11 | 232 | 0.0 | 3.2 | 0.00 | 1.14 | 1.14 | 94 | 1011.2 |
| 20260510021520 | 11 | 232 | 0.0 | 0.0 | 0.00 | 1.14 | 1.14 | 95 | 1011.0 |
| 20260510020018 | 10 | 105 | 0.0 | 0.0 | 0.00 | 1.14 | 1.14 | 94 | 1010.9 |
| 20260510014523 | 10 | 215 | 0.0 | 0.0 | 0.00 | 1.14 | 1.14 | 94 | 1010.9 |
| 20260510013018 | 10 | 215 | 0.0 | 0.0 | 0.00 | 1.14 | 1.14 | 93 | 1010.9 |
| 20260510011527 | 10 | 215 | 0.0 | 0.0 | 0.00 | 1.14 | 1.14 | 93 | 1010.9 |
| 20260510010027 | 10 | 215 | 0.0 | 3.2 | 0.00 | 1.14 | 1.14 | 93 | 1010.4 |
| 20260510004524 | 11 | 249 | 0.0 | 0.0 | 0.00 | 1.14 | 1.14 | 93 | 1010.4 |
| 20260510003022 | 11 | 249 | 0.0 | 3.2 | 0.00 | 1.14 | 1.14 | 93 | 1010.4 |
| 20260510001520 | 11 | 156 | 0.0 | 0.0 | 0.00 | 1.14 | 1.14 | 93 | 1010.2 |
| 20260510000014 | 11 | 156 | 0.0 | 1.6 | 0.00 | 1.14 | 1.14 | 93 | 1010.1 |
| 20260509234524 | 12 | 181 | 0.0 | 0.0 | 0.03 | 1.14 | 1.14 | 93 | 1010.2 |
| 20260509233035 | 12 | 181 | 0.0 | 3.2 | 0.03 | 1.14 | 1.14 | 93 | 1010.4 |
| 20260509231527 | 12 | 185 | 0.0 | 0.0 | 0.10 | 1.14 | 1.14 | 94 | 1010.4 |
| 20260509230022 | 12 | 101 | 0.0 | 0.0 | 0.20 | 1.14 | 1.14 | 93 | 1010.6 |
| 20260509224519 | 11 | 101 | 0.0 | 0.0 | 0.33 | 1.12 | 1.12 | 93 | 1010.6 |
| 20260509223018 | 11 | 101 | 0.0 | 3.2 | 0.43 | 1.12 | 1.12 | 93 | 1010.6 |
| 20260509221512 | 11 | 162 | 0.0 | 3.2 | 0.43 | 1.04 | 1.04 | 92 | 1010.8 |
| 20260509220028 | 11 | 224 | 0.0 | 3.2 | 0.38 | 0.94 | 0.94 | 92 | 1011.2 |
| 20260509214526 | 11 | 223 | 0.0 | 3.2 | 0.28 | 0.79 | 0.79 | 91 | 1011.1 |
| 20260509213027 | 12 | 216 | 1.6 | 8.0 | 0.20 | 0.69 | 0.69 | 91 | 1011.3 |
| 20260509211525 | 12 | 305 | 1.6 | 4.8 | 0.13 | 0.61 | 0.61 | 92 | 1011.3 |
| 20260509210026 | 12 | 184 | 0.0 | 3.2 | 0.10 | 0.56 | 0.56 | 92 | 1011.2 |